Regional Weather Roundup
Issued by NWS Green Bay, WI

Home | Current Version | Previous Version | Text Only | Print | Product List | Glossary On
Versions: 1 2 3 4 5 6 7 8 9 10 11 12 13 14 15 16 17 18 19 20 21 22 23 24 25 26 27 28 29 30 31 32 33 34 35 36 37 38 39 40 41 42 43 44 45 46 47 48 49 50
000
ASUS43 KGRB 251911
RWRGRB

NORTH-CENTRAL AND NORTHEAST WISCONSIN REGIONAL WEATHER ROUNDUP
NATIONAL WEATHER SERVICE GREEN BAY WI
100 PM CST SAT FEB 25 2017

WIZ005-009-010>012-018-019-252000-
NORTH CENTRAL WISCONSIN

CITY           SKY/WX    TMP DP  RH WIND       PRES   REMARKS
IRONWOOD       LGT SNOW  17  10  74 W17G25    29.75S WCI   1
MANITOWISH WTR LGT SNOW  14   9  79 W13       29.72S WCI   0
ARBOR VITAE    FLURRIES  17  10  73 NW12G21     N/A  WCI   4
EAGLE RIVER    LGT SNOW  17   9  72 NW16G23   29.69R WCI   1
LAND O LAKES   LGT SNOW  18  12  78 W12G17    29.69R WCI   6
RHINELANDER    LGT SNOW  18  10  71 W18G28    29.72R WCI   2
PHILLIPS       MOSUNNY   18   6  60 W8        29.76S WCI   8
ANTIGO         FLURRIES  17  10  73 NW20      29.73R WCI   1
TOMAHAWK       CLOUDY    17   8  69 W13       29.77R WCI   3
MERRILL        NOT AVBL
$$

WIZ013-073-252000-
NORTHEAST WISCONSIN

CITY           SKY/WX    TMP DP  RH WIND       PRES   REMARKS
IRON MOUNTAIN  LGT SNOW  22  10  60 NW18G28   29.65R WCI   7
MARINETTE      CLOUDY    27  15  61 NW10G21   29.70R
OCONTO         CLOUDY    24  13  64 W12G28    29.73R
$$

WIZ017-030-035>037-045-252000-
CENTRAL WISCONSIN

CITY           SKY/WX    TMP DP  RH WIND       PRES   REMARKS
MEDFORD        MOSUNNY   17   6  60 W16       29.78S WCI   2
WAUSAU         CLOUDY    17   8  67 W16       29.78R WCI   2
MOSINEE        CLOUDY    16  10  79 W17       29.80R WCI   0
MARSHFIELD     MOSUNNY   18   5  57 W18G24    29.80S WCI   2
WISC RAPIDS    MOSUNNY   19   8  62 NW14      29.84R WCI   6
STEVENS POINT  PTSUNNY   16   6  65 W12G21    29.81S WCI   2
WAUPACA        CLOUDY    23  11  58 W15G22    29.81R
SHAWANO        CLOUDY    24  12  60 CALM      29.76R
CLINTONVILLE   CLOUDY    21  10  63 NW17G25   29.78R WCI   7
WAUTOMA        PTSUNNY   21  11  65 NW20      29.84  WCI   6
$$

WIZ038-039-048-051-252000-
FOX VALLEY

CITY           SKY/WX    TMP DP  RH WIND       PRES   REMARKS
NWS GREEN BAY  CLOUDY    23  13  65 W16G28    29.76R WCI  10
APPLETON       CLOUDY    19  10  68 NW15G21   29.77R WCI   5
OSHKOSH        CLOUDY    20  11  68 NW18G24   29.79R WCI   5
FOND DU LAC    MIX PCPN  20   9  62 W18       29.81R WCI   5
$$

WIZ022-050-052-252000-
EAST CENTRAL WISCONSIN

CITY           SKY/WX    TMP DP  RH WIND       PRES   REMARKS
EPHRAIM        CLOUDY    24  17  73 NW8       29.66R
WASHINGTON ISL CLOUDY    24  14  67 NW7       29.65R
STURGEON BAY   FLURRIES  24  16  71 W16G24    29.70R
MANITOWOC      PTSUNNY   24  14  65 W18G26    29.76R
SHEBOYGAN      MIX PCPN  21  11  65 W16G28    29.78R WCI   7
$$

LMZ563-521-522-541>543-252000-
LAKESHORE

STATION/POSITION TIME  TEMP    WIND        PRES    VSBY  WAVE
                       AIR SEA DIR/SP/G                  HT/PER
                 (UTC) (F)     (DEG/KT/KT) (MB)    (MI)  (FT/S)
SHEBOYGAN LKSHOR 1900   20     290/ 14/ 17 1009.3R
KEWAUNEE LKSHORE 1848   22     280/ 16/ 23 1006.1R
NORTHPORT PIER   1813   23     290/  1/  2 1004.4R
SISTER BAY LKSHO 1820   25        CALM       N/A
CHAMBERS ISLAND  1840   25     280/  1/  2 1004.7R
MENOMINEE LKSHOR 1848   25     280/  8/ 16 1005.0R
$$




USA.gov is the U.S. government's official web portal to all federal, state and local government web resources and services.